User: anonymous   Login
Location: Syracuse
(43.0480°N, 76.1480°W)
Time: 18:05:38
(UTC-05:00)
Language:

Cosmos 1140 Rocket - Orbit

View from above orbital plane
View from above orbital plane
View from above satellite
View from above satellite

Ground track
Ground track

The orbit data is extracted from the following two-line orbital elements,

1 11574U 79089B   14352.52047006  .00000527  00000-0  17421-3 0  9127
2 11574 074.0713 101.5600 0016848 241.7343 195.3492 14.40355254845885
Epoch (UTC): 18 December 2014 12:29:28
Eccentricity: 0.0016848
inclination: 74.0713°
perigee height: 745 km
apogee height: 769 km
right ascension of ascending node: 101.5600°
argument of perigee: 241.7343°
revolutions per day: 14.40355254
mean anomaly at epoch: 195.3492°
orbit number at epoch: 84588

The dashed part of the orbit path shows where the satellite is in the earth's shadow,  

DLR